GW0759 Weather Reports


Display with metric or nautical units.
time (UTC)temp
F
wind
direction
speed
MPH
gust
MPH
rain 1hr
in
rain 24hr
in
rain mn
in
humidity
%
barometer
mb
20260831213109 101 77 2.0 12.0 0.00 0.00 0.00 29 1012.9
20260831211600 102 111 4.0 16.0 0.00 0.00 0.00 29 1013.0
20260831210055 103 157 6.0 12.0 0.00 0.00 0.00 28 1013.1
20260831204555 100 161 4.0 14.0 0.00 0.00 0.00 29 1013.3
20260831203111 103 196 6.0 13.0 0.00 0.00 0.00 29 1013.5
20260831201559 102 167 5.0 13.0 0.00 0.00 0.00 30 1013.8
20260831200057 99 137 5.0 14.0 0.00 0.00 0.00 32 1013.9
20260831194632 100 114 5.0 14.0 0.00 0.00 0.00 30 1014.1
20260831193056 103 123 5.0 13.0 0.00 0.00 0.00 32 1014.2
20260831191559 101 76 8.0 15.0 0.00 0.00 0.00 32 1014.4
20260831190112 98 77 4.0 11.0 0.00 0.00 0.00 36 1014.5
20260831184607 99 134 7.0 13.0 0.00 0.00 0.00 34 1014.7
20260831183059 98 116 6.0 13.0 0.00 0.00 0.00 35 1014.9
20260831181602 99 136 5.0 12.0 0.00 0.00 0.00 36 1015.0
20260831180109 97 173 5.0 13.0 0.00 0.00 0.00 38 1015.4
20260831174556 97 215 7.0 14.0 0.00 0.00 0.00 37 1015.6
20260831173059 96 145 3.0 11.0 0.00 0.00 0.00 38 1015.9
20260831171601 97 92 5.0 14.0 0.00 0.00 0.00 39 1016.0
20260831170058 94 146 5.0 12.0 0.00 0.00 0.00 41 1016.1
20260831164601 94 150 7.0 11.0 0.00 0.00 0.00 41 1016.2
20260831163102 93 138 5.0 13.0 0.00 0.00 0.00 42 1016.1
20260831161602 92 105 3.0 9.0 0.00 0.00 0.00 44 1016.0
20260831160106 91 65 2.0 9.0 0.00 0.00 0.00 47 1016.1
20260831154709 89 316 3.0 10.0 0.00 0.00 0.00 49 1016.1
20260831153103 88 205 4.0 9.0 0.00 0.00 0.00 54 1016.0
20260831151559 87 232 3.0 9.0 0.00 0.00 0.00 57 1016.1
20260831150106 85 211 6.0 12.0 0.00 0.00 0.00 60 1016.0
20260831144550 84 225 3.0 11.0 0.00 0.00 0.00 64 1015.8
20260831143114 83 199 4.0 10.0 0.00 0.00 0.00 68 1015.8
20260831141613 82 157 5.0 11.0 0.00 0.00 0.00 69 1015.9
20260831140057 81 205 3.0 9.0 0.00 0.00 0.00 72 1016.0
20260831134610 79 239 3.0 7.0 0.00 0.00 0.00 75 1015.8
20260831133109 78 198 2.0 6.0 0.00 0.00 0.00 78 1015.6
20260831131607 77 177 2.0 7.0 0.00 0.00 0.00 80 1015.4
20260831130059 76 205 1.0 7.0 0.00 0.00 0.00 80 1015.3
20260831124611 75 155 1.0 4.0 0.00 0.00 0.00 81 1015.0
20260831123100 75 132 1.0 4.0 0.00 0.00 0.00 81 1014.8
20260831121605 75 132 1.0 3.0 0.00 0.00 0.00 80 1014.5
20260831120106 75 151 1.0 4.0 0.00 0.00 0.00 80 1014.4
20260831114606 75 157 1.0 3.0 0.00 0.00 0.00 79 1014.3
20260831113103 75 155 1.0 5.0 0.00 0.00 0.00 78 1014.1
20260831111558 76 121 1.0 4.0 0.00 0.00 0.00 77 1013.8
20260831110106 76 146 1.0 3.0 0.00 0.00 0.00 76 1013.9
20260831104604 76 136 1.0 6.0 0.00 0.00 0.00 75 1013.9
20260831103100 76 163 1.0 4.0 0.00 0.00 0.00 75 1013.9
20260831101617 77 141 1.0 5.0 0.00 0.00 0.00 74 1013.9
20260831100110 77 122 1.0 6.0 0.00 0.00 0.00 73 1013.7
20260831094559 77 0 1.0 3.0 0.00 0.00 0.00 72 1013.7
20260831093101 78 101 2.0 7.0 0.00 0.00 0.00 71 1013.8
20260831091605 78 165 2.0 5.0 0.00 0.00 0.00 70 1013.6
20260831090109 78 148 2.0 5.0 0.00 0.00 0.00 69 1013.6
20260831084555 78 129 2.0 5.0 0.00 0.00 0.00 68 1013.6
20260831083107 78 132 1.0 3.0 0.00 0.00 0.00 67 1013.5
20260831081556 79 123 1.0 4.0 0.00 0.00 0.00 66 1013.4
20260831074607 79 98 2.0 5.0 0.00 0.00 0.00 64 1013.5
20260831073103 80 178 1.0 5.0 0.00 0.00 0.00 62 1013.4
20260831071553 80 115 2.0 6.0 0.00 0.00 0.00 61 1013.5
20260831070054 81 169 2.0 6.0 0.00 0.00 0.00 60 1013.6
20260831064557 81 177 2.0 6.0 0.00 0.00 0.00 59 1013.5
20260831063100 81 202 2.0 6.0 0.00 0.00 0.00 57 1013.7
20260831061602 81 149 1.0 4.0 0.00 0.00 0.00 57 1013.6
20260831060108 81 160 1.0 4.0 0.00 0.00 0.00 56 1013.6
20260831054557 81 176 2.0 5.0 0.00 0.00 0.00 54 1013.6
20260831053107 82 173 2.0 5.0 0.00 0.00 0.00 54 1013.5
20260831051620 81 154 1.0 4.0 0.00 0.00 0.00 54 1013.5
20260831050107 81 144 1.0 4.0 0.00 0.00 0.00 54 1013.4
20260831044555 82 174 1.0 3.0 0.00 0.00 0.00 53 1013.4
20260831043058 82 167 1.0 5.0 0.00 0.00 0.00 51 1013.3
20260831041602 81 153 1.0 4.0 0.00 0.00 0.00 52 1013.2
20260831034554 83 115 0.0 2.0 0.00 0.00 0.00 49 1013.2
20260831033057 84 115 1.0 4.0 0.00 0.00 0.00 47 1013.1
20260831031601 85 126 2.0 5.0 0.00 0.00 0.00 45 1013.0
20260831030112 85 165 2.0 4.0 0.00 0.00 0.00 45 1012.8
20260831024636 85 0 1.0 3.0 0.00 0.00 0.00 45 1012.7
20260831023054 85 140 0.0 2.0 0.00 0.00 0.00 44 1012.4
20260831021603 88 140 1.0 4.0 0.00 0.00 0.00 40 1012.3
20260831014603 89 121 1.0 4.0 0.00 0.00 0.00 38 1011.7
20260831013112 90 0 1.0 5.0 0.00 0.00 0.00 37 1011.5
20260831011553 91 154 1.0 5.0 0.00 0.00 0.00 36 1011.5
20260831010100 92 123 1.0 5.0 0.00 0.00 0.00 35 1011.4
20260831004556 94 146 2.0 5.0 0.00 0.00 0.00 32 1011.4
20260831003102 96 131 2.0 7.0 0.00 0.00 0.00 30 1011.3
20260831001557 97 132 4.0 10.0 0.00 0.00 0.00 29 1011.3
20260831000057 98 96 4.0 9.0 0.00 0.00 0.00 28 1011.3
20260830234608 100 120 4.0 12.0 0.00 0.00 0.00 27 1011.5
20260830233058 101 130 5.0 11.0 0.00 0.00 0.00 26 1011.5
20260830231557 102 126 8.0 13.0 0.00 0.00 0.00 26 1011.4
20260830224557 102 152 6.0 14.0 0.00 0.00 0.00 27 1011.5
20260830223104 103 119 8.0 14.0 0.00 0.00 0.00 27 1011.5
20260830221605 103 169 5.0 14.0 0.00 0.00 0.00 26 1011.6
20260830220113 103 59 3.0 11.0 0.00 0.00 0.00 27 1011.6
20260830214604 103 198 4.0 12.0 0.00 0.00 0.00 25 1011.6